Weather History for Southend, SK

Change the Weather History Date:

Tuesday, December 25, 2012

  Actual Average Record
Temperature  
Mean Temperature -10 °F -  
Max Temperature -5 °F - - ()
Min Temperature -17 °F - - ()
Degree Days  
Heating Degree Days 76    
Moisture  
Dew Point -16 °F    
Average Humidity 75    
Maximum Humidity 80    
Minimum Humidity 63    
Precipitation  
Precipitation 0.07 in - - ()
Sea Level Pressure  
Sea Level Pressure 30.45 in    
Wind  
Wind Speed 4 mph ()    
Max Wind Speed 6 mph    
Max Gust Speed -    
T = Trace of Precipitation, MM = Missing Value Source: Averaged Metar Reports

Daily Weather History Graph

Daily Weather History Graph

Search for Another Location

Airport:

Trip Planner

Search our weather history database for the weather conditions in past years. The results will help you decide how hot, cold, wet, or windy it might be!

Date:

Astronomy

Dec. 25, 2012 Rise Set
Actual Time 9:26 AM CST 4:20 PM CST
Civil Twilight 8:38 AM CST 5:08 PM CST
Nautical Twilight 7:49 AM CST 5:58 PM CST
Astronomical Twilight 7:02 AM CST 6:44 PM CST
Moon 2:38 PM CST (12/25) 6:51 AM CST (12/25)
Length of Visible Light 8h 29m
Length of Day
6h 53m
Waxing Gibbous, 94% of the Moon is Illuminated
Dec 25
Waxing Gibbous
Dec 28
Full
Jan 4
Last Quarter
Jan 11
New
Jan 18
First Quarter

Hourly Weather History & Observations

Time (CST) Temp. Windchill Dew Point Humidity Pressure Visibility Wind Dir Wind Speed Gust Speed Precip Events Conditions
12:00 AM -10 °F - -16 °F 65% 30.49 in - West 4.6 mph - -  
12:00 AM -10.1 °F -21.7 °F -15.5 °F 77% 30.49 in - West 4.6 mph - N/A   Unknown
1:00 AM -9.9 °F -19.2 °F -15.3 °F 77% 30.48 in - WNW 3.5 mph - N/A   Unknown
2:00 AM -9.6 °F -18.8 °F -15.2 °F 76% 30.48 in - NW 3.5 mph - N/A   Unknown
3:00 AM -10.7 °F -20.0 °F -15.9 °F 78% 30.48 in - WNW 3.5 mph - N/A   Unknown
4:00 AM -11.4 °F -25.1 °F -16.4 °F 78% 30.49 in - West 5.8 mph - N/A   Unknown
5:00 AM -11.4 °F -23.2 °F -16.6 °F 78% 30.49 in - West 4.6 mph - N/A   Unknown
6:00 AM -10 °F - -16 °F 63% 30.47 in - NW 5.8 mph - -  
6:00 AM -10.5 °F -24.0 °F -15.9 °F 77% 30.47 in - NW 5.8 mph - N/A   Unknown
7:00 AM -9.8 °F -21.3 °F -15.2 °F 77% 30.47 in - WNW 4.6 mph - N/A   Unknown
8:00 AM -9.4 °F - -14.6 °F 78% 30.47 in - WNW 2.3 mph - N/A   Unknown
9:00 AM -9.6 °F -18.8 °F -14.8 °F 78% 30.46 in - WNW 3.5 mph - N/A   Unknown
10:00 AM -9.2 °F -18.4 °F -14.6 °F 77% 30.47 in - West 3.5 mph - N/A   Unknown
11:00 AM -8.5 °F - -14.3 °F 76% 30.47 in - West 2.3 mph - N/A   Unknown
12:00 PM -8 °F - -14 °F 64% 30.46 in - NW 5.8 mph - -  
12:00 PM -7.6 °F -20.6 °F -13.7 °F 75% 30.46 in - NW 5.8 mph - N/A   Unknown
1:00 PM -6.7 °F -19.5 °F -13.2 °F 73% 30.44 in - NNW 5.8 mph - N/A   Unknown
2:00 PM -6.2 °F -18.9 °F -12.5 °F 74% 30.42 in - NW 5.8 mph - N/A   Unknown
3:00 PM -6.0 °F -14.7 °F -12.1 °F 75% 30.42 in - NW 3.5 mph - N/A   Unknown
4:00 PM -7.4 °F -16.3 °F -13.5 °F 75% 30.42 in - NW 3.5 mph - N/A   Unknown
5:00 PM -9.8 °F - -15.0 °F 78% 30.43 in - WNW 2.3 mph - N/A   Unknown
6:00 PM -12 °F - -17 °F 66% 30.43 in - West 2.3 mph - -  
6:00 PM -12.5 °F - -17.1 °F 80% 30.43 in - West 2.3 mph - N/A   Unknown
7:00 PM -12.5 °F -22.1 °F -17.5 °F 78% 30.42 in - West 3.5 mph - N/A   Unknown
8:00 PM -14.1 °F - -19.1 °F 78% 30.40 in - WNW 2.3 mph - N/A   Unknown
9:00 PM -15.9 °F - -20.9 °F 78% 30.40 in - WSW 1.2 mph - N/A   Unknown
10:00 PM -16.2 °F -26.4 °F -21.3 °F 78% 30.38 in - WSW 3.5 mph - N/A   Unknown
11:00 PM -17.0 °F - -21.8 °F 79% 30.38 in - West 2.3 mph - N/A   Unknown